Time,TemperatureF,DewpointF,PressureIn,WindDirection,WindDirectionDegrees,WindSpeedMPH,WindSpeedGustMPH,Humidity,HourlyPrecipIn,Conditions,Clouds,dailyrainin,SoftwareType,DateUTC
2013-06-28 00:08:00,68.2,67.6,29.44,West,270,0.0,-999.0,98,-99.99,,,0.00,Acu-Link.com,2013-06-28 04:08:00,
2013-06-28 00:23:00,68.0,67.4,29.44,WSW,247,1.1,-999.0,98,-99.99,,,0.00,Acu-Link.com,2013-06-28 04:23:00,
2013-06-28 00:51:00,68.0,67.4,29.44,SE,135,0.0,-999.0,98,-99.99,,,0.00,Acu-Link.com,2013-06-28 04:51:00,
2013-06-28 01:09:00,67.1,66.5,29.44,WNW,292,0.0,-999.0,98,-99.99,,,0.00,Acu-Link.com,2013-06-28 05:09:00,
2013-06-28 01:25:00,66.4,65.8,29.44,South,180,0.0,-999.0,98,-99.99,,,0.00,Acu-Link.com,2013-06-28 05:25:00,
2013-06-28 01:41:00,66.0,65.4,29.43,WNW,292,0.0,-999.0,98,-99.99,,,0.00,Acu-Link.com,2013-06-28 05:41:00,
2013-06-28 01:57:00,66.0,65.4,29.41,WNW,292,0.0,-999.0,98,-99.99,,,0.00,Acu-Link.com,2013-06-28 05:57:00,
2013-06-28 02:12:00,65.7,65.1,29.42,South,180,0.0,-999.0,98,-99.99,,,0.00,Acu-Link.com,2013-06-28 06:12:00,
2013-06-28 02:28:00,65.3,64.7,29.42,West,270,0.0,-999.0,98,-99.99,,,0.01,Acu-Link.com,2013-06-28 06:28:00,
2013-06-28 02:43:00,65.8,65.2,29.42,West,270,0.0,-999.0,98,-99.99,,,0.01,Acu-Link.com,2013-06-28 06:43:00,
2013-06-28 02:58:00,65.8,65.2,29.42,West,270,0.0,-999.0,98,-99.99,,,0.01,Acu-Link.com,2013-06-28 06:58:00,
2013-06-28 03:15:00,66.0,65.4,29.42,WNW,292,1.1,-999.0,98,-99.99,,,0.01,Acu-Link.com,2013-06-28 07:15:00,
2013-06-28 03:33:00,66.0,65.4,29.42,SW,225,0.0,-999.0,98,-99.99,,,0.01,Acu-Link.com,2013-06-28 07:33:00,
2013-06-28 03:48:00,65.8,65.2,29.42,SSW,202,0.0,-999.0,98,-99.99,,,0.01,Acu-Link.com,2013-06-28 07:48:00,
2013-06-28 04:04:00,66.0,65.4,29.43,SSW,202,0.0,-999.0,98,-99.99,,,0.01,Acu-Link.com,2013-06-28 08:04:00,
2013-06-28 04:29:00,66.0,65.4,29.42,SSE,157,0.0,-999.0,98,-99.99,,,0.01,Acu-Link.com,2013-06-28 08:29:00,
2013-06-28 04:45:00,66.2,65.6,29.43,WSW,247,0.0,-999.0,98,-99.99,,,0.01,Acu-Link.com,2013-06-28 08:45:00,
2013-06-28 05:20:00,66.2,65.6,29.42,SW,225,2.2,-999.0,98,-99.99,,,0.01,Acu-Link.com,2013-06-28 09:20:00,
2013-06-28 05:46:00,66.2,65.6,29.44,SW,225,2.2,-999.0,98,-99.99,,,0.01,Acu-Link.com,2013-06-28 09:46:00,
2013-06-28 06:03:00,66.2,65.6,29.43,SSW,202,1.1,-999.0,98,-99.99,,,0.01,Acu-Link.com,2013-06-28 10:03:00,
2013-06-28 06:40:00,66.2,65.6,29.44,WSW,247,0.0,-999.0,98,-99.99,,,0.01,Acu-Link.com,2013-06-28 10:40:00,
2013-06-28 06:56:00,67.5,66.9,29.43,West,270,2.2,-999.0,98,-99.99,,,0.01,Acu-Link.com,2013-06-28 10:56:00,
2013-06-28 07:14:00,67.5,66.9,29.43,SSW,202,1.7,-999.0,98,-99.99,,,0.01,Acu-Link.com,2013-06-28 11:14:00,
2013-06-28 07:31:00,68.7,68.1,29.44,South,180,1.1,-999.0,98,-99.99,,,0.01,Acu-Link.com,2013-06-28 11:31:00,
2013-06-28 07:47:00,69.4,68.8,29.44,WNW,292,0.0,-999.0,98,-99.99,,,0.01,Acu-Link.com,2013-06-28 11:47:00,
2013-06-28 08:02:00,70.0,69.4,29.44,SSE,157,0.0,-999.0,98,-99.99,,,0.01,Acu-Link.com,2013-06-28 12:02:00,
2013-06-28 08:18:00,70.2,69.6,29.43,SW,225,3.7,-999.0,98,-99.99,,,0.01,Acu-Link.com,2013-06-28 12:18:00,
2013-06-28 08:35:00,71.4,70.8,29.43,ESE,112,1.7,-999.0,98,-99.99,,,0.01,Acu-Link.com,2013-06-28 12:35:00,
2013-06-28 08:51:00,72.7,71.8,29.42,South,180,3.7,-999.0,97,-99.99,,,0.01,Acu-Link.com,2013-06-28 12:51:00,
2013-06-28 09:06:00,74.3,71.8,29.42,NNW,337,1.7,-999.0,92,-99.99,,,0.01,Acu-Link.com,2013-06-28 13:06:00,
2013-06-28 09:21:00,73.8,72.3,29.41,ESE,112,1.1,-999.0,95,-99.99,,,0.01,Acu-Link.com,2013-06-28 13:21:00,
2013-06-28 09:36:00,75.7,72.9,29.42,NNE,22,2.7,-999.0,91,-99.99,,,0.01,Acu-Link.com,2013-06-28 13:36:00,
2013-06-28 09:51:00,75.9,73.4,29.40,NNW,337,3.2,-999.0,92,-99.99,,,0.01,Acu-Link.com,2013-06-28 13:51:00,
2013-06-28 10:06:00,75.0,73.2,29.41,ESE,112,1.7,-999.0,94,-99.99,,,0.01,Acu-Link.com,2013-06-28 14:06:00,
2013-06-28 10:22:00,78.3,73.1,29.41,SW,225,1.7,-999.0,84,-99.99,,,0.01,Acu-Link.com,2013-06-28 14:22:00,
2013-06-28 10:40:00,77.0,72.8,29.41,South,180,1.7,-999.0,87,-99.99,,,0.01,Acu-Link.com,2013-06-28 14:40:00,
2013-06-28 10:55:00,78.6,72.6,29.40,SSE,157,2.2,-999.0,82,-99.99,,,0.01,Acu-Link.com,2013-06-28 14:55:00,
2013-06-28 11:15:00,76.6,71.7,29.41,WSW,247,2.2,-999.0,85,-99.99,,,0.01,Acu-Link.com,2013-06-28 15:15:00,
2013-06-28 11:31:00,75.4,72.9,29.41,NNW,337,0.0,-999.0,92,-99.99,,,0.01,Acu-Link.com,2013-06-28 15:31:00,
2013-06-28 11:46:00,75.4,71.9,29.41,SSE,157,2.7,-999.0,89,-99.99,,,0.01,Acu-Link.com,2013-06-28 15:46:00,
2013-06-28 12:01:00,80.1,73.4,29.40,West,270,2.7,-999.0,80,-99.99,,,0.01,Acu-Link.com,2013-06-28 16:01:00,
2013-06-28 12:24:00,82.0,72.9,29.39,ESE,112,3.7,-999.0,74,-99.99,,,0.01,Acu-Link.com,2013-06-28 16:24:00,
2013-06-28 12:39:00,81.1,72.0,29.38,NNE,22,2.2,-999.0,74,-99.99,,,0.01,Acu-Link.com,2013-06-28 16:39:00,
2013-06-28 12:54:00,79.7,71.4,29.37,SSW,202,0.0,-999.0,76,-99.99,,,0.01,Acu-Link.com,2013-06-28 16:54:00,
2013-06-28 13:09:00,80.4,72.1,29.37,NE,45,3.7,-999.0,76,-99.99,,,0.01,Acu-Link.com,2013-06-28 17:09:00,
2013-06-28 13:24:00,81.9,74.0,29.37,NNE,22,4.7,-999.0,77,-99.99,,,0.01,Acu-Link.com,2013-06-28 17:24:00,
2013-06-28 13:39:00,81.3,73.0,29.37,WNW,292,2.2,-999.0,76,-99.99,,,0.01,Acu-Link.com,2013-06-28 17:39:00,
2013-06-28 13:55:00,80.2,71.5,29.36,ESE,112,0.0,-999.0,75,-99.99,,,0.01,Acu-Link.com,2013-06-28 17:55:00,
2013-06-28 14:11:00,80.1,71.8,29.36,North,0,1.7,-999.0,76,-99.99,,,0.01,Acu-Link.com,2013-06-28 18:11:00,
2013-06-28 14:26:00,78.8,72.5,29.35,NNW,337,2.7,-999.0,81,-99.99,,,0.01,Acu-Link.com,2013-06-28 18:26:00,
2013-06-28 14:44:00,82.0,73.3,29.35,NNE,22,2.2,-999.0,75,-99.99,,,0.01,Acu-Link.com,2013-06-28 18:44:00,
2013-06-28 15:00:00,81.0,73.1,29.34,NNE,22,2.2,-999.0,77,-99.99,,,0.01,Acu-Link.com,2013-06-28 19:00:00,
2013-06-28 15:16:00,82.4,73.3,29.33,WSW,247,1.7,-999.0,74,-99.99,,,0.01,Acu-Link.com,2013-06-28 19:16:00,
2013-06-28 15:33:00,81.5,72.8,29.32,SSE,157,0.0,-999.0,75,-99.99,,,0.01,Acu-Link.com,2013-06-28 19:33:00,
2013-06-28 15:49:00,81.0,73.5,29.32,ESE,112,3.7,-999.0,78,-99.99,,,0.01,Acu-Link.com,2013-06-28 19:49:00,
2013-06-28 16:06:00,81.0,71.9,29.33,South,180,4.7,-999.0,74,-99.99,,,0.01,Acu-Link.com,2013-06-28 20:06:00,
2013-06-28 16:22:00,81.0,72.3,29.34,West,270,2.7,-999.0,75,-99.99,,,0.01,Acu-Link.com,2013-06-28 20:22:00,
2013-06-28 16:50:00,70.9,69.7,29.37,SSW,202,2.2,-999.0,96,-99.99,,,0.01,Acu-Link.com,2013-06-28 20:50:00,
2013-06-28 17:09:00,73.4,69.6,29.37,NW,315,1.7,-999.0,88,-99.99,,,0.16,Acu-Link.com,2013-06-28 21:09:00,
2013-06-28 17:27:00,73.6,67.4,29.36,SW,225,0.0,-999.0,81,-99.99,,,0.16,Acu-Link.com,2013-06-28 21:27:00,
2013-06-28 17:45:00,74.3,69.8,29.36,North,0,3.2,-999.0,86,-99.99,,,0.16,Acu-Link.com,2013-06-28 21:45:00,
2013-06-28 18:02:00,74.3,69.1,29.37,WNW,292,2.2,-999.0,84,-99.99,,,0.16,Acu-Link.com,2013-06-28 22:02:00,
2013-06-28 18:21:00,75.6,70.1,29.36,West,270,2.2,-999.0,83,-99.99,,,0.16,Acu-Link.com,2013-06-28 22:21:00,
2013-06-28 18:36:00,75.4,69.5,29.37,SSE,157,0.0,-999.0,82,-99.99,,,0.16,Acu-Link.com,2013-06-28 22:36:00,
2013-06-28 18:52:00,76.3,69.7,29.37,North,0,3.7,-999.0,80,-99.99,,,0.16,Acu-Link.com,2013-06-28 22:52:00,
2013-06-28 19:07:00,77.0,70.0,29.36,NE,45,0.0,-999.0,79,-99.99,,,0.16,Acu-Link.com,2013-06-28 23:07:00,
2013-06-28 19:22:00,74.8,68.2,29.38,SSW,202,0.0,-999.0,80,-99.99,,,0.16,Acu-Link.com,2013-06-28 23:22:00,
2013-06-28 19:37:00,73.8,69.7,29.38,North,0,1.1,-999.0,87,-99.99,,,0.16,Acu-Link.com,2013-06-28 23:37:00,
2013-06-28 19:52:00,72.3,69.5,29.37,ENE,67,0.0,-999.0,91,-99.99,,,0.16,Acu-Link.com,2013-06-28 23:52:00,
2013-06-28 20:07:00,71.1,70.2,29.37,NNE,22,0.0,-999.0,97,-99.99,,,0.16,Acu-Link.com,2013-06-29 00:07:00,
2013-06-28 20:22:00,70.0,69.4,29.36,NNE,22,0.0,-999.0,98,-99.99,,,0.16,Acu-Link.com,2013-06-29 00:22:00,
2013-06-28 20:37:00,69.4,68.8,29.36,North,0,0.0,-999.0,98,-99.99,,,0.16,Acu-Link.com,2013-06-29 00:37:00,
2013-06-28 20:52:00,68.4,67.8,29.36,NNE,22,0.0,-999.0,98,-99.99,,,0.16,Acu-Link.com,2013-06-29 00:52:00,
2013-06-28 21:08:00,67.6,67.0,29.38,NNW,337,0.0,-999.0,98,-99.99,,,0.16,Acu-Link.com,2013-06-29 01:08:00,
2013-06-28 21:23:00,67.3,66.7,29.38,NE,45,0.0,-999.0,98,-99.99,,,0.16,Acu-Link.com,2013-06-29 01:23:00,
2013-06-28 21:38:00,66.7,66.1,29.38,ENE,67,0.0,-999.0,98,-99.99,,,0.16,Acu-Link.com,2013-06-29 01:38:00,
2013-06-28 21:53:00,66.4,65.8,29.38,NE,45,0.0,-999.0,98,-99.99,,,0.16,Acu-Link.com,2013-06-29 01:53:00,
2013-06-28 22:08:00,66.2,65.6,29.38,NNW,337,0.0,-999.0,98,-99.99,,,0.16,Acu-Link.com,2013-06-29 02:08:00,
2013-06-28 22:23:00,66.2,65.6,29.39,NNW,337,0.0,-999.0,98,-99.99,,,0.16,Acu-Link.com,2013-06-29 02:23:00,
2013-06-28 22:38:00,66.4,65.8,29.40,South,180,0.0,-999.0,98,-99.99,,,0.16,Acu-Link.com,2013-06-29 02:38:00,
2013-06-28 22:53:00,66.2,65.6,29.41,WSW,247,0.0,-999.0,98,-99.99,,,0.16,Acu-Link.com,2013-06-29 02:53:00,
2013-06-28 23:08:00,66.2,65.6,29.40,West,270,0.0,-999.0,98,-99.99,,,0.16,Acu-Link.com,2013-06-29 03:08:00,
2013-06-28 23:24:00,66.0,65.4,29.41,West,270,0.0,-999.0,98,-99.99,,,0.16,Acu-Link.com,2013-06-29 03:24:00,
2013-06-28 23:39:00,65.3,64.7,29.41,SSW,202,0.0,-999.0,98,-99.99,,,0.16,Acu-Link.com,2013-06-29 03:39:00,
2013-06-28 23:54:00,64.6,64.0,29.40,SW,225,0.0,-999.0,98,-99.99,,,0.16,Acu-Link.com,2013-06-29 03:54:00,